Nuiqsut, AK

8:36 AM AKDT on May 22, 2018 (GMT -0800)
Nuiqsut

Weather History for PAQT - April, 2013

Change the Weather History Date:

Thursday, April 25, 2013

  Actual Average (PAKU) Record (PAKU)
Temperature  
Mean Temperature 5 °F -  
Max Temperature 10 °F 12 °F 37 °F (1983)
Min Temperature 0 °F 2 °F -21 °F (1987)
Degree Days  
Heating Degree Days 60    
Moisture  
Dew Point 4 °F    
Average Humidity 87    
Maximum Humidity 92    
Minimum Humidity 84    
Precipitation  
Precipitation 0.00 in - - ()
Sea Level Pressure  
Sea Level Pressure 30.26 in    
Wind  
Wind Speed 15 mph (WSW)    
Max Wind Speed 16 mph    
Max Gust Speed -    
Visibility 6 miles    
Events Snow    
Averages and records for this station are not official NWS values.
T = Trace of Precipitation, MM = Missing Value Source: NWS Daily Summary

Daily Weather History Graph

Daily Weather History Graph

Search for Another Location

Airport or City:

Astronomy

Apr. 25, 2013 Rise Set
Actual Time 5:03 AM AKDT 11:04 PM AKDT
Civil Twilight 2:53 AM AKDT 1:31 AM AKDT
Nautical Twilight Sun does not set Sun does not set
Astronomical Twilight Sun does not set Sun does not set
Moon No Moon Rise 4:56 AM AKDT (4/25)
Length of Visible Light 22h 38m
Length of Day
18h 01m
Full, 100% of the Moon is Illuminated
Apr 25
Full
May 2
Last Quarter
May 9
New
May 17
First Quarter
May 24
Full

Hourly Weather History & Observations

Time (AKDT) Temp. Windchill Dew Point Humidity Pressure Visibility Wind Dir Wind Speed Gust Speed Precip Events Conditions
2:53 AM -0.9 °F -20.6 °F -4.0 °F 87% 30.37 in 10.0 mi WSW 15.0 mph - N/A   Overcast
4:53 AM 1.9 °F -16.9 °F -0.9 °F 88% 30.35 in 7.0 mi WSW 15.0 mph - 0.00 in Snow Light Snow
5:50 AM 3.2 °F -15.9 °F -0.4 °F 85% 30.34 in 2.5 mi WSW 16.1 mph - 0.00 in Snow Light Snow
5:53 AM 3.0 °F -15.5 °F -0.0 °F 87% 30.34 in 3.0 mi WSW 15.0 mph - 0.00 in Snow Light Snow
6:20 AM 3.2 °F -15.9 °F 1.4 °F 92% 30.33 in 2.0 mi WSW 16.1 mph - 0.00 in Snow Light Snow
6:30 AM 3.2 °F -15.9 °F 1.4 °F 92% 30.33 in 5.0 mi WSW 16.1 mph - 0.00 in Snow Light Snow
6:53 AM 3.0 °F -16.1 °F 1.0 °F 91% 30.33 in 8.0 mi WSW 16.1 mph - 0.00 in   Overcast
7:53 AM 3.9 °F -15.0 °F 1.9 °F 91% 30.33 in 8.0 mi WSW 16.1 mph - 0.00 in   Overcast
8:53 AM 5.0 °F -12.3 °F 3.0 °F 92% 30.33 in 4.0 mi West 13.8 mph - 0.00 in Snow Light Snow
9:18 AM 6.8 °F -10.7 °F 3.2 °F 85% 30.32 in 2.5 mi West 15.0 mph - 0.00 in Snow Light Snow
9:53 AM 6.1 °F -10.2 °F 3.9 °F 91% 30.33 in 2.5 mi West 12.7 mph - 0.00 in Snow Light Snow
12:14 PM 6.8 °F -11.3 °F 3.2 °F 85% 30.32 in 3.0 mi WSW 16.1 mph - 0.00 in Snow Light Snow
12:53 PM 7.0 °F -10.4 °F 3.0 °F 84% 30.32 in 6.0 mi WSW 15.0 mph - 0.00 in Snow Light Snow
1:41 PM 8.6 °F -8.9 °F 5.0 °F 85% 30.30 in 0.8 mi West 16.1 mph - 0.00 in Snow Light Snow
1:53 PM 8.1 °F -9.6 °F 5.0 °F 87% 30.31 in 5.0 mi West 16.1 mph - 0.00 in Snow Light Snow
2:09 PM 8.6 °F -8.9 °F 5.0 °F 85% 30.30 in 7.0 mi West 16.1 mph - 0.00 in Snow Light Snow
2:53 PM 9.0 °F -7.9 °F 5.0 °F 84% 30.28 in 1.2 mi West 15.0 mph - 0.00 in Snow Light Snow
2:57 PM 8.6 °F -8.3 °F 5.0 °F 85% 30.28 in 4.0 mi WSW 15.0 mph - 0.00 in Snow Light Snow
3:20 PM 8.6 °F -7.7 °F 5.0 °F 85% 30.27 in 10.0 mi West 13.8 mph - 0.00 in   Overcast
3:29 PM 8.6 °F -8.3 °F 5.0 °F 85% 30.27 in 10.0 mi West 15.0 mph - 0.00 in Snow Light Snow
3:53 PM 9.0 °F -7.9 °F 6.1 °F 88% 30.27 in 10.0 mi West 15.0 mph - 0.00 in   Overcast
4:42 PM 8.6 °F -8.9 °F 6.8 °F 92% 30.26 in 3.0 mi West 16.1 mph - 0.00 in Snow Light Snow
4:53 PM 9.0 °F -8.5 °F 6.1 °F 88% 30.26 in 5.0 mi West 16.1 mph - 0.00 in Snow Light Snow
5:05 PM 10.4 °F -6.0 °F 6.8 °F 85% 30.25 in 2.5 mi West 15.0 mph - 0.00 in Snow Light Snow
5:22 PM 8.6 °F -7.7 °F 5.0 °F 85% 30.24 in 4.0 mi West 13.8 mph - 0.00 in Snow Light Snow
5:53 PM 9.0 °F -7.3 °F 5.0 °F 84% 30.24 in 6.0 mi WSW 13.8 mph - 0.00 in Snow Blowing Snow
6:18 PM 8.6 °F -7.0 °F 5.0 °F 85% 30.22 in 4.0 mi WSW 12.7 mph - 0.00 in Snow Light Snow
6:53 PM 9.0 °F -6.6 °F 5.0 °F 84% 30.22 in 4.0 mi West 12.7 mph - 0.00 in Snow Light Snow
7:06 PM 8.6 °F -7.0 °F 5.0 °F 85% 30.20 in 5.0 mi WSW 12.7 mph - 0.00 in Snow Light Snow
7:53 PM 9.0 °F -7.3 °F 6.1 °F 88% 30.18 in 5.0 mi WSW 13.8 mph - 0.00 in Snow Light Snow
8:53 PM 8.1 °F -8.4 °F 5.0 °F 87% 30.16 in 10.0 mi WSW 13.8 mph - 0.00 in   Overcast
9:53 PM 8.1 °F -7.7 °F 5.0 °F 87% 30.13 in 9.0 mi WSW 12.7 mph - 0.00 in Snow Light Snow
10:44 PM 8.6 °F -5.5 °F 5.0 °F 85% 30.09 in 10.0 mi WSW 10.4 mph - 0.00 in   Overcast
10:53 PM 8.1 °F -6.2 °F 5.0 °F 87% 30.09 in 10.0 mi WSW 10.4 mph - 0.00 in   Overcast
11:27 PM 8.6 °F -3.7 °F 6.8 °F 92% 30.06 in 10.0 mi SW 8.1 mph - 0.00 in   Overcast
11:53 PM 8.1 °F -4.3 °F 5.0 °F 87% 30.05 in 10.0 mi SW 8.1 mph - 0.00 in   Overcast